Miles City, MT

3:43 AM MDT on July 23, 2016 (GMT -0600)
Wiley | | Change Station
Active Advisory: Fire Weather Warning Active Notice: Record Report

Elev 2628 ft 46.43 °N, 105.88 °W | Updated 50 minutes ago

Clear
Clear
72 °F
Feels Like 72 °F
N
17
Wind Variable Wind from North

Today
High -- | Low -- °F
--% Chance of Precip.
Yesterday
High -- | Low -- °F
Precip. -- in
Pressure 29.76 in
Visibility 10.0 miles
Clouds Clear
Dew Point 62 °F
Humidity 71%
Rainfall 0.00 in
Snow Depth Not available.
5:34 AM 8:44 PM
Waning Gibbous, 86% visible
METAR KMLS 230853Z AUTO 36015KT 10SM CLR 22/17 A2985 RMK AO2 SLP078 T02220167 53034
Pressure 29.76 in
Visibility 10.0 miles
Clouds Clear
Dew Point 62 °F
Humidity 71%
Rainfall 0.00 in
Snow Depth Not available.
5:34 AM 8:44 PM
Waning Gibbous, 86% visible
METAR KMLS 230853Z AUTO 36015KT 10SM CLR 22/17 A2985 RMK AO2 SLP078 T02220167 53034

10-Day Weather Forecast

Almanac

Astronomy

Jul. 23, 2016 Rise Set
Actual Time
Civil Twilight
Nautical Twilight
Astronomical Twilight
Moon
Length of Visible Light
Length of Day
Tomorrow will be .
, % of the Moon is Illuminated

Today's Extremes

State Highs State Lows

Community

WunderPhotos

Upload Photos

1,926,790 photos uploaded!

WunderBlog® & News

Nearby

Air Quality

  Air Quality AQ Index Pollutant
Not available.

Snow Depth

Station Depth Elevation

Earthquake Activity

City Distance Mag. Time & Date
Minimum magnitude displayed is 2.5.

Coastal Water Temperatures

Place Temperature

Stations

Nearby Weather Stations

Station Location Temp. Windchill Dew Point Humidity Wind Precip. Elev Updated Type
                   

Watches & Warnings

Fire Weather Warning
Issued: 1:46 AM MDT Jul. 23, 2016 – National Weather Service

... Red flag warning in effect from noon today to 9 PM MDT this
evening...

The National Weather Service in Billings has issued a red flag
warning... which is in effect from noon today to 9 PM MDT this
evening.

* Impacts: low humidities and strong gusty winds will create
erratic fire behavior and possible new fire starts.

* Affected area:
   in southeast Mt fire zones... 131... 132.
   In southeast Mt and northwest SD fire zone... .133.

* Counties affected:
   in northwest SD... Harding.
   In south central Mt... Big Horn.
   In southeast Mt... Carter... Custer... Fallon... Powder River
                     Rosebud... Treasure.

* Wind: northwest 20 to 25 mph with gusts up to 40 mph.

* Humidity: as low as 17 percent.

Precautionary/preparedness actions...

A red flag warning means that critical fire weather conditions are
either occurring now... or will shortly. A combination of strong
winds... low relative humidity... and warm temperatures can
contribute to extreme fire behavior.